284  
ASUS46 KPQR 172310  
RWROR  
 
OREGON REGIONAL WEATHER ROUNDUP  
NATIONAL WEATHER SERVICE PORTLAND OR  
300 PM PST THU JAN 17 2019  
 
NOTE: "FAIR" INDICATES FEW OR NO CLOUDS BELOW 12,000 FEET WITH  
NO SIGNIFICANT WEATHER AND/OR S TO VISIBILITY
.  
 
ORZ001>013-180000-  
NORTHWEST OREGON  
 
 
CITY SKY/WX TMP DP RH WIND PRES REMARKS
 
ASTORIA LGT RAIN 51 49 92 S24G37 29.53R  
TILLAMOOK CLOUDY 52 46 82 S18 29.63R  
NEWPORT CLOUDY 50 48 93 S18G24 29.70R FOG  
PORTLAND CLOUDY 54 39 57 S25G40 29.64R  
VANCOUVER WA CLOUDY 53 40 61 SE9G22 29.64R  
SCAPPOOSE LGT RAIN 52 44 74 S9G22 29.62R  
HILLSBORO LGT RAIN 50 43 77 S16G26 29.62R  
AURORA CLOUDY 50 41 71 S26G41 29.64R  
MCMINNVILLE RAIN 49 43 80 S28G38 29.64R  
SALEM LGT RAIN 49 42 77 S22G31 29.68R  
CORVALLIS LGT RAIN 47 45 93 S20 29.70R  
EUGENE LGT RAIN 48 43 82 S15 29.74R  

 
 
ORZ021-028-180000-  
SOUTHWEST OREGON  
 
 
CITY SKY/WX TMP DP RH WIND PRES REMARKS
 
NORTH BEND CLOUDY 50 46 87 S9 29.79R  
BROOKINGS CLOUDY 48 46 93 SE12 29.88R FOG  
ROSEBURG LGT RAIN 46 43 89 CALM 29.81R  
SEXTON SUMMIT SNOW 32 32 100 S14G26 29.77R VSB<1/4 WCI 22  
GRANTS PASS LGT RAIN 43 41 93 CALM 29.87  
MEDFORD LGT RAIN 50 35 56 W17 29.83R  

 
 
ORZ014>016-041-180000-  
COLUMBIA GORGE  
 
 
CITY SKY/WX TMP DP RH WIND PRES REMARKS
 
TROUTDALE CLOUDY 43 37 79 E13 29.67R  
HOOD RIVER RAIN 34 34 100 CALM 29.75R  
THE DALLES CLOUDY 37 34 89 NW3 29.75R  

 
 
ORZ029>031-041-044-049-050-061>064-502-503-505>511-180000-  
EASTERN OREGON  
 
 
CITY SKY/WX TMP DP RH WIND PRES REMARKS
 
MADRAS CLOUDY 34 32 93 CALM 29.67R FOG  
REDMOND PTSUNNY 45 32 60 S14G23 29.66R  
BEND CLOUDY 45 30 57 S18 29.68R  
PRINEVILLE PTSUNNY 46 28 49 SW13G21 29.67R  
KLAMATH FALLS PTSUNNY 42 29 59 W12 29.80R  
LAKEVIEW PTSUNNY 38 30 73 S18G24 29.80R WCI 28  
HERMISTON CLOUDY 40 35 83 SE3 29.73R  
PENDLETON CLOUDY 35 33 92 CALM 29.69R  
JOHN DAY CLOUDY 46 33 60 S17G23 29.70  
MEACHAM CLOUDY 47 27 45 CALM 29.66R  
LA GRANDE CLOUDY 45 36 70 S17G23 29.70R  
BAKER CITY CLOUDY 46 34 62 SE9 29.71R  
BURNS PTSUNNY 41 31 67 S12 29.74R  
ROME N/A 43 29 57 S24G32 29.73S  
ONTARIO CLOUDY 48 42 80 NE5 29.76R  

 
 
 
CLICK HERE TO GO TO PREVIOUS BULLETINS.

The Nexlab OR Page Main Text Page